RH
72 60 43 45 46 52 60 49 56 50 50 47 45 47 51 50 44 42 36 33 28 36 61 93 87 72 57 37 36 33 28 23 23 20 21 23 23 22 20 19 22 23 26
76 65 51 44 44 42 42 40 45 49 45 43 38 37 39 40 45 39 38 36 35 46 49 75 76 58 46 41 39 37 32 26 24 24 23 23 24 25 21 21 22 23 22
85 81 71 57 48 42 39 38 39 41 35 30 32 33 32 30 32 34 38 40 41 48 48 61 66 55 48 46 43 41 36 32 27 28 26 25 25 25 22 22 22 27 25
71 65 63 57 55 45 41 42 38 37 34 30 30 28 27 30 31 29 30 34 44 48 53 64 68 59 51 48 45 44 41 37 33 32 28 24 25 26 25 25 24 25 28
70 56 48 50 56 52 44 44 38 37 34 29 31 30 31 30 31 29 30 32 44 51 53 62 63 56 53 51 48 47 45 42 40 41 35 27 24 27 25 26 26 26 29
74 69 55 53 59 62 51 47 42 38 35 34 32 36 35 33 30 28 27 37 49 58 58 60 64 58 57 56 50 49 49 49 51 49 41 30 27 27 27 31 31 30 34
75 70 66 73 69 63 49 49 50 45 39 41 40 40 37 34 30 25 27 38 49 58 65 72 68 60 60 58 51 50 49 55 60 55 41 32 29 31 34 36 36 39 40
77 83 74 83 80 63 52 54 54 46 42 42 43 42 39 37 34 26 25 35 50 60 64 67 61 61 62 57 52 51 55 55 60 56 42 37 39 40 39 42 42 45 42
77 82 80 81 90 75 61 57 56 53 48 46 45 46 50 42 37 28 24 30 47 62 60 57 54 48 56 56 55 52 59 55 56 52 44 45 43 44 43 48 44 45 40
75 70 85 73 89 85 77 64 61 54 53 52 58 61 49 46 41 31 26 25 31 43 51 50 50 51 55 56 53 53 56 57 54 47 55 53 49 50 49 48 45 46 44
75 67 75 71 82 89 86 78 66 58 58 61 80 79 63 50 47 40 31 28 27 31 39 43 45 52 52 50 51 60 62 59 52 56 57 56 55 53 53 49 49 51 49
66 65 67 72 74 88 94 93 85 69 67 73 88 91 68 61 57 52 39 33 32 31 32 38 44 48 48 50 55 58 59 59 60 61 59 56 55 50 49 45 54 56 50
66 63 64 73 86 85 92 88 74 73 75 97 100 96 83 82 80 58 57 42 38 39 36 40 46 50 52 53 56 58 63 65 64 62 58 57 53 53 50 55 64 62 56
65 77 74 69 90 82 84 89 77 70 72 74 78 95 92 95 90 78 68 69 58 46 42 43 46 47 53 60 61 63 62 61 59 60 59 56 55 59 62 62 64 67 61
100 96 74 70 70 88 94 93 90 85 73 68 62 59 80 93 91 90 96 87 80 72 66 59 53 49 50 53 54 59 60 62 60 61 63 66 64 70 68 70 82 75 60
100 100 92 98 83 94 100 100 95 89 82 74 74 66 63 63 62 74 88 89 82 77 75 73 72 73 74 69 68 70 70 70 69 69 70 65 68 73 78 81 87 73 70
100 100 100 98 92 100 100 100 100 99 97 90 78 80 78 71 71 70 79 79 76 76 74 68 69 69 69 72 72 70 70 69 68 68 68 75 80 87 82 82 76 73 70
100 97 100 100 91 86 98 100 99 100 100 98 95 84 82 86 83 88 97 98 93 79 80 80 80 82 81 78 74 81 84 82 79 84 90 100 100 99 87 74 66 70 75
100 100 100 100 94 90 95 97 100 96 97 99 100 100 100 100 100 100 100 100 100 100 99 100 89 86 94 98 100 99 93 98 100 100 100 100 84 84 80 72 80 83 86
100 100 100 100 100 99 99 100 100 100 100 100 100 100 100 92 86 82 79 80 96 100 96 99 99 100 100 100 91 100 100 100 100 100 98 89 91 82 82 86 92 94 96
100 100 100 100 99 90 89 100 100 92 98 100 100 100 100 100 100 80 70 64 61 66 84 100 100 100 100 100 100 100 100 100 100 91 94 97 85 86 93 97 100 100 100
100 100 100 100 100 100 94 93 95 99 100 100 100 100 100 100 100 99 100 99 90 81 72 78 93 100 100 100 100 100 97 99 100 100 95 100 90 99 100 100 100 100 97
100 100 100 100 100 100 100 100 100 91 92 99 100 100 100 100 100 100 100 100 97 90 84 82 84 93 100 100 100 100 100 100 100 99 99 100 100 100 100 100 100 100 98
93 97 100 100 100 100 100 100 100 100 100 100 100 100 100 100 94 99 100 100 100 100 99 99 100 100 100 100 100 100 100 94 99 100 100 100 100 100 100 100 100 100 93
88 92 92 94 100 100 100 100 100 100 100 100 100 100 100 100 100 100 86 76 81 96 100 100 100 100 100 100 100 100 100 100 100 100 100 100 100 100 100 100 100 97 86
75 80 83 82 79 84 91 99 100 100 96 97 96 100 100 100 100 100 100 100 100 100 100 100 100 99 100 96 92 99 100 100 100 100 100 100 100 100 100 100 100 94 91
Wind_Speed
42 44 43 43 42 40 39 37 35 33 33 32 32 32 31 30 31 31 30 28 27 28 28 24 21 23 23 26 26 26 26 26 26 26 27 29 32 34 34 36 36 38 41
46 42 43 44 43 43 41 40 39 36 35 34 34 34 32 32 31 30 28 27 26 28 28 27 26 25 26 27 28 29 28 29 29 30 30 31 33 36 36 37 38 41 44
50 47 44 44 45 44 44 42 41 40 38 35 33 32 29 29 29 28 28 29 29 29 31 29 29 28 29 29 30 31 31 32 32 33 33 33 35 38 39 40 41 45 47
48 47 46 44 45 45 44 42 42 41 38 35 33 31 30 29 29 29 29 30 31 31 31 29 30 30 31 31 31 33 33 33 34 36 37 37 38 39 41 43 46 48 50
49 46 45 45 45 44 42 43 43 42 41 36 33 30 29 28 29 30 31 30 31 31 32 31 31 31 32 33 34 33 35 35 37 38 40 40 41 41 44 46 49 51 53
51 48 45 45 45 43 41 40 40 41 39 36 33 29 29 28 28 30 30 30 31 31 32 31 31 33 33 34 35 35 36 38 39 42 42 42 43 44 46 49 52 55 54
51 49 46 44 43 42 40 39 38 37 35 33 32 30 29 29 30 31 30 30 31 31 31 31 32 34 36 36 37 37 38 40 41 42 42 43 46 47 49 51 54 56 57
52 49 47 44 42 42 41 39 36 36 33 33 32 32 31 31 32 31 31 31 32 31 32 33 34 36 38 39 39 39 40 41 43 43 45 45 48 50 52 54 55 57 59
55 49 48 46 43 42 41 39 35 34 33 32 34 33 34 34 33 31 32 32 33 33 35 36 38 39 40 41 40 41 42 44 43 45 46 48 50 53 54 56 57 59 60
56 55 49 46 46 45 42 39 37 36 35 34 34 34 33 33 33 32 33 33 35 36 38 38 40 41 41 42 43 43 43 42 46 46 47 50 52 54 56 56 58 60 62
60 56 51 47 47 47 44 41 41 39 37 35 36 36 36 34 34 34 33 34 36 37 38 38 39 40 42 43 42 42 43 45 46 48 49 51 54 57 57 59 60 63 66
62 55 52 50 47 50 48 47 45 43 40 39 39 39 38 37 36 36 36 35 36 37 38 38 40 42 43 43 43 44 46 47 49 51 53 56 57 60 60 61 62 66 68
67 63 60 55 52 53 53 52 49 45 44 43 42 42 41 39 38 37 38 38 38 39 39 40 42 43 44 45 45 46 48 50 53 55 56 59 61 63 64 60 65 69 72
66 68 67 62 58 56 54 53 51 49 47 48 47 45 45 44 41 39 39 40 40 41 43 43 44 45 46 47 48 49 51 53 56 57 60 62 63 65 63 64 68 72 76
71 72 68 62 61 58 56 56 55 53 51 49 49 48 47 45 46 43 42 42 43 45 45 46 47 48 49 49 50 52 54 57 58 59 62 63 64 65 66 67 71 76 78
77 78 73 66 64 64 60 58 57 56 55 54 52 51 51 50 48 47 46 47 46 47 49 50 51 53 53 54 55 56 58 60 62 64 64 65 66 68 68 69 73 78 81
72 75 76 74 71 68 66 64 62 62 60 58 58 57 56 55 54 53 52 50 50 51 52 52 54 56 57 57 58 59 62 64 66 67 67 67 69 70 71 73 77 80 82
83 65 65 66 69 73 74 70 67 67 65 64 63 61 59 59 58 57 56 57 57 57 56 57 58 59 59 59 60 62 66 68 68 68 69 70 70 73 76 78 81 82 84
87 86 80 75 73 74 74 72 71 70 70 68 67 65 64 59 59 59 59 59 62 63 60 60 60 58 60 63 65 67 69 70 71 72 71 71 73 78 80 82 83 85 86
92 89 85 83 79 77 77 75 77 74 70 69 65 61 61 64 66 65 64 62 60 61 63 62 61 64 67 68 68 70 72 72 70 71 74 77 80 82 83 84 85 87 88
92 90 90 84 83 78 80 76 66 63 62 67 70 64 65 64 66 69 69 68 68 67 66 64 66 69 69 69 67 69 66 68 73 76 79 83 84 85 84 85 86 87 89
96 94 91 89 86 83 80 81 78 73 69 72 67 72 71 67 70 70 71 68 69 68 70 72 72 70 70 71 68 68 74 79 79 76 81 86 88 87 87 89 90 94 97
101 99 96 93 89 85 82 80 78 79 79 77 71 73 74 70 72 71 71 71 72 72 73 74 74 76 75 72 74 80 79 81 81 84 85 86 92 93 92 94 99 100 102
105 103 102 100 97 94 86 84 83 81 80 78 76 73 72 75 75 74 74 74 76 73 72 72 73 75 78 78 79 85 88 89 90 87 87 93 96 97 98 101 103 105 107
107 108 107 105 102 99 97 94 94 93 88 88 83 82 83 81 79 79 78 80 79 78 79 82 83 82 84 86 88 90 89 88 91 93 95 97 96 99 102 105 109 109 112
108 108 107 107 106 105 102 100 98 97 97 94 92 91 88 87 87 87 85 82 81 82 83 84 85 87 89 90 91 92 93 94 97 99 98 98 100 103 106 107 111 114 115
Wind_Direction
237 237 238 241 245 246 247 253 254 255 257 262 270 272 273 273 273 275 280 281 284 282 282 290 288 288 288 289 288 290 284 283 287 291 296 302 308 313 315 318 322 325 326
239 237 237 242 247 248 249 252 255 259 261 264 271 274 274 275 275 276 278 278 280 281 283 287 283 284 283 284 287 289 285 282 286 290 296 302 307 312 315 316 319 322 325
240 241 241 242 245 250 253 254 256 258 263 265 268 271 271 274 275 276 277 278 278 280 282 280 279 279 280 281 286 287 287 286 288 293 296 300 304 309 312 314 318 322 324
240 243 243 246 248 249 252 253 255 257 261 264 267 268 271 273 277 279 279 277 278 279 280 276 277 275 278 280 283 286 288 289 291 294 295 299 304 308 310 313 317 320 323
241 244 246 247 248 251 252 252 252 255 258 262 265 267 271 273 275 278 278 277 275 278 278 278 277 273 277 280 283 286 289 291 292 294 297 299 301 306 309 313 317 319 322
239 243 245 249 249 251 253 250 251 254 257 261 264 268 271 274 277 277 275 275 274 275 276 276 274 273 276 279 284 286 290 293 295 295 298 300 302 306 311 315 316 317 321
239 242 243 248 246 248 249 248 251 253 256 258 261 265 269 274 277 274 274 274 273 274 273 275 271 274 276 280 285 289 292 294 296 298 299 302 304 308 311 316 317 317 321
237 241 242 245 245 243 246 248 252 252 254 256 260 265 269 273 275 273 273 272 272 273 274 275 274 276 279 283 285 289 292 294 296 297 300 304 306 310 313 315 316 319 320
236 238 241 242 244 245 248 248 247 252 255 256 261 266 273 274 271 271 272 271 272 272 274 275 277 279 280 285 287 289 290 294 294 298 301 304 306 309 313 314 316 317 319
235 236 240 241 243 245 245 245 247 252 255 257 261 268 272 274 269 270 272 272 271 271 274 276 278 279 281 285 287 288 291 292 294 297 302 305 307 309 313 314 316 317 319
235 236 238 241 241 242 243 245 248 252 253 255 261 268 273 274 272 268 271 272 272 272 273 275 278 279 282 283 285 287 289 291 294 297 300 303 305 307 310 311 315 317 318
233 234 237 240 241 240 242 247 249 252 253 254 258 262 268 271 274 272 269 271 273 275 275 276 279 281 282 283 284 286 288 292 295 297 299 300 303 307 309 311 314 316 318
235 238 239 242 242 241 243 247 248 251 253 256 258 258 264 268 272 275 271 272 274 275 277 279 279 280 281 282 285 287 289 292 294 295 297 300 304 306 309 309 314 316 317
239 240 240 242 243 244 245 247 250 254 255 257 258 260 261 264 269 273 275 273 274 276 277 277 278 281 281 283 285 288 289 292 294 295 298 301 304 306 308 310 313 315 317
237 238 239 239 243 245 244 245 247 251 255 258 259 260 261 265 268 270 274 275 274 275 277 279 280 281 282 284 286 288 290 293 295 297 299 303 304 308 309 310 311 314 316
238 239 240 240 243 244 245 247 248 251 253 255 258 260 262 265 266 267 269 272 273 276 277 278 279 280 282 284 286 288 291 293 295 297 299 302 305 307 309 308 310 312 315
237 240 241 242 243 243 245 248 251 253 254 254 257 258 262 265 266 267 267 269 271 275 275 278 279 281 282 284 286 289 291 292 293 297 301 304 305 306 306 307 309 311 314
234 235 238 241 243 242 244 247 251 254 254 256 257 258 260 261 263 264 266 268 269 274 276 279 281 281 283 285 287 289 290 294 297 299 301 301 302 305 306 307 310 312 313
234 239 241 244 245 247 247 249 251 255 256 258 259 259 258 259 261 261 264 267 270 271 273 276 279 280 282 284 286 288 291 294 298 299 299 300 303 305 306 309 310 311 312
237 238 240 242 244 248 251 253 255 255 254 257 256 255 254 254 257 259 261 264 267 270 273 276 277 279 281 284 287 290 293 295 297 296 298 300 302 305 307 308 308 309 310
235 240 242 242 246 247 250 252 251 253 255 256 255 253 254 258 263 263 271 271 272 271 271 274 276 278 280 282 286 289 292 293 292 296 297 298 302 305 306 305 306 306 306
235 237 240 243 244 248 251 253 252 252 252 255 256 259 260 262 263 263 265 270 271 273 273 275 275 278 281 281 283 287 290 294 293 294 297 299 302 303 302 303 302 304 305
236 237 240 242 244 246 247 252 254 255 256 255 257 260 262 263 265 266 266 270 271 271 273 273 274 277 279 280 284 289 292 292 292 294 297 299 300 300 300 301 302 304 305
237 239 242 243 244 246 245 245 247 251 254 256 253 254 260 265 265 265 266 269 270 270 273 275 277 279 280 281 286 288 290 293 294 294 294 295 297 298 299 300 302 303 304
237 238 240 243 246 248 248 249 251 250 249 249 252 255 254 253 255 261 265 266 267 269 272 274 276 276 277 278 282 286 288 288 290 292 293 294 294 296 298 300 301 302 305
239 240 241 243 245 247 249 250 251 252 252 252 252 251 253 256 256 256 258 261 265 267 269 270 271 274 276 278 280 282 284 286 287 289 291 292 294 296 297 298 300 302 304